• în România
  • Lista ţărilor
  • Pe 7 zile
  • Temperatura apei
  • Hartă satelitară
  • Meteo pe hartă
  • Widget-uri
  • user-avatar
    Intrare

    Meteo pe oră la Satif

    Astăzi, 30 Aprilie, Duminică

    Timp Temperatura Precipitaţii Vânt Presiune Umiditate
    00:00 +10°C° 0,5 mm 1 m/s 669 mmHg 91%
    01:00 +10°C° 0 mm 1 m/s 669 mmHg 90%
    02:00 +10°C° 0 mm 1 m/s 669 mmHg 90%
    03:00 +10°C° 0 mm 1 m/s 669 mmHg 89%
    04:00 +11°C° 0 mm 1 m/s 669 mmHg 86%
    05:00 +12°C° 0 mm 1 m/s 669 mmHg 83%
    06:00 +13°C° 0 mm 1 m/s 670 mmHg 80%
    07:00 +15°C° 0 mm 1 m/s 670 mmHg 72%
    08:00 +16°C° 0 mm 1 m/s 671 mmHg 63%
    09:00 +19°C° 0 mm 1 m/s 672 mmHg 55%
    10:00 +19°C° 0,1 mm 2 m/s 672 mmHg 51%
    11:00 +20°C° 0,1 mm 2 m/s 672 mmHg 46%
    12:00 +23°C° 0,1 mm 2 m/s 672 mmHg 42%
    13:00 +21°C° 0,4 mm 3 m/s 672 mmHg 45%
    14:00 +21°C° 0,4 mm 3 m/s 671 mmHg 47%
    15:00 +20°C° 0,4 mm 3 m/s 671 mmHg 50%
    16:00 +18°C° 0,2 mm 3 m/s 671 mmHg 59%
    17:00 +17°C° 0,2 mm 2 m/s 671 mmHg 68%
    18:00 +15°C° 0,2 mm 2 m/s 670 mmHg 77%
    19:00 +14°C° 0 mm 2 m/s 671 mmHg 82%
    20:00 +12°C° 0 mm 2 m/s 671 mmHg 87%
    21:00 +10°C° 0 mm 1 m/s 671 mmHg 93%
    22:00 +10°C° 0 mm 1 m/s 671 mmHg 93%
    23:00 +10°C° 0 mm 1 m/s 671 mmHg 93%

    Mâine, 1 Mai, Luni

    Timp Temperatura Precipitaţii Vânt Presiune Umiditate
    00:00 +9°C° 0 mm 1 m/s 671 mmHg 94%
    01:00 +9°C° 0 mm 1 m/s 670 mmHg 94%
    02:00 +7°C° 0 mm 0 m/s 670 mmHg 94%
    03:00 +7°C° 0 mm 0 m/s 670 mmHg 94%
    04:00 +9°C° 0 mm 1 m/s 671 mmHg 91%
    05:00 +10°C° 0 mm 1 m/s 671 mmHg 89%
    06:00 +12°C° 0 mm 1 m/s 672 mmHg 86%
    07:00 +14°C° 0 mm 1 m/s 672 mmHg 75%
    08:00 +15°C° 0 mm 1 m/s 673 mmHg 65%
    09:00 +18°C° 0 mm 1 m/s 674 mmHg 54%
    10:00 +20°C° 0 mm 1 m/s 674 mmHg 48%
    11:00 +22°C° 0 mm 1 m/s 675 mmHg 42%
    12:00 +24°C° 0 mm 1 m/s 675 mmHg 35%
    13:00 +23°C° 0 mm 2 m/s 675 mmHg 38%
    14:00 +21°C° 0 mm 2 m/s 674 mmHg 41%
    15:00 +20°C° 0 mm 2 m/s 674 mmHg 44%
    16:00 +19°C° 0 mm 2 m/s 673 mmHg 53%
    17:00 +17°C° 0 mm 2 m/s 673 mmHg 61%
    18:00 +15°C° 0 mm 2 m/s 673 mmHg 70%
    19:00 +14°C° 0 mm 2 m/s 673 mmHg 78%
    20:00 +12°C° 0 mm 2 m/s 673 mmHg 85%
    21:00 +11°C° 0 mm 1 m/s 673 mmHg 93%
    22:00 +10°C° 0 mm 1 m/s 673 mmHg 93%
    23:00 +10°C° 0 mm 1 m/s 673 mmHg 94%

    Poimâine, 2 Mai, Marţi

    Timp Temperatura Precipitaţii Vânt Presiune Umiditate
    00:00 +9°C° 0 mm 1 m/s 672 mmHg 95%
    01:00 +9°C° 0 mm 1 m/s 672 mmHg 95%
    02:00 +9°C° 0 mm 1 m/s 672 mmHg 95%
    03:00 +8°C° 0 mm 1 m/s 672 mmHg 95%
    04:00 +9°C° 0 mm 1 m/s 672 mmHg 93%
    05:00 +10°C° 0 mm 1 m/s 672 mmHg 90%
    06:00 +11°C° 0 mm 1 m/s 673 mmHg 88%
    07:00 +14°C° 0 mm 1 m/s 673 mmHg 77%
    08:00 +16°C° 0 mm 2 m/s 674 mmHg 66%
    09:00 +18°C° 0 mm 2 m/s 675 mmHg 55%
    10:00 +19°C° 0,2 mm 3 m/s 675 mmHg 53%
    11:00 +20°C° 0,2 mm 3 m/s 675 mmHg 52%
    12:00 +20°C° 0,2 mm 3 m/s 674 mmHg 50%
    13:00 +20°C° 0,5 mm 3 m/s 674 mmHg 52%
    14:00 +20°C° 0,5 mm 3 m/s 674 mmHg 53%
    15:00 +20°C° 0,5 mm 3 m/s 673 mmHg 54%
    16:00 +18°C° 0,4 mm 2 m/s 673 mmHg 62%
    17:00 +17°C° 0,4 mm 2 m/s 673 mmHg 70%
    18:00 +15°C° 0,4 mm 1 m/s 672 mmHg 78%
    19:00 +14°C° 0,3 mm 1 m/s 672 mmHg 82%
    20:00 +13°C° 0,3 mm 1 m/s 672 mmHg 86%
    21:00 +11°C° 0,3 mm 1 m/s 672 mmHg 90%
    22:00 +11°C° 0,3 mm 1 m/s 672 mmHg 90%
    23:00 +11°C° 0,3 mm 1 m/s 672 mmHg 90%

    3 Mai, Miercuri

    Timp Temperatura Precipitaţii Vânt Presiune Umiditate
    00:00 +11°C° 0,3 mm 1 m/s 672 mmHg 91%
    01:00 +11°C° 0,2 mm 1 m/s 671 mmHg 90%
    02:00 +11°C° 0,2 mm 1 m/s 671 mmHg 90%
    03:00 +10°C° 0,2 mm 1 m/s 671 mmHg 90%
    04:00 +11°C° 0,1 mm 1 m/s 671 mmHg 87%
    05:00 +12°C° 0,1 mm 1 m/s 672 mmHg 84%
    06:00 +13°C° 0,1 mm 2 m/s 672 mmHg 81%
    07:00 +15°C° 0 mm 2 m/s 673 mmHg 71%
    08:00 +18°C° 0 mm 3 m/s 673 mmHg 62%
    09:00 +20°C° 0 mm 3 m/s 674 mmHg 53%
    10:00 +21°C° 0,3 mm 3 m/s 674 mmHg 50%
    11:00 +21°C° 0,3 mm 4 m/s 674 mmHg 48%
    12:00 +22°C° 0,3 mm 4 m/s 674 mmHg 45%
    13:00 +22°C° 0,5 mm 3 m/s 674 mmHg 47%
    14:00 +22°C° 0,5 mm 3 m/s 673 mmHg 48%
    15:00 +22°C° 0,5 mm 3 m/s 673 mmHg 49%
    16:00 +20°C° 0,3 mm 2 m/s 672 mmHg 57%
    17:00 +18°C° 0,3 mm 2 m/s 672 mmHg 65%
    18:00 +18°C° 0,3 mm 1 m/s 671 mmHg 72%
    19:00 +16°C° 0,2 mm 1 m/s 671 mmHg 74%
    20:00 +14°C° 0,2 mm 1 m/s 671 mmHg 77%
    21:00 +13°C° 0,2 mm 1 m/s 671 mmHg 79%
    22:00 +13°C° 0,4 mm 1 m/s 671 mmHg 79%
    23:00 +13°C° 0,4 mm 2 m/s 671 mmHg 80%

    4 Mai, Joi

    Timp Temperatura Precipitaţii Vânt Presiune Umiditate
    00:00 +13°C° 0,4 mm 2 m/s 671 mmHg 80%
    01:00 +12°C° 0,2 mm 2 m/s 670 mmHg 80%
    02:00 +12°C° 0,2 mm 2 m/s 670 mmHg 80%
    03:00 +12°C° 0,2 mm 2 m/s 670 mmHg 80%
    04:00 +13°C° 0 mm 2 m/s 670 mmHg 78%
    05:00 +13°C° 0 mm 2 m/s 670 mmHg 75%
    06:00 +14°C° 0 mm 2 m/s 670 mmHg 73%
    07:00 +17°C° 0 mm 2 m/s 671 mmHg 63%
    08:00 +20°C° 0 mm 3 m/s 672 mmHg 53%
    09:00 +22°C° 0 mm 3 m/s 672 mmHg 43%
    10:00 +25°C° 0 mm 4 m/s 672 mmHg 39%
    11:00 +26°C° 0 mm 4 m/s 672 mmHg 35%
    12:00 +27°C° 0 mm 4 m/s 672 mmHg 31%
    13:00 +27°C° 0 mm 4 m/s 672 mmHg 31%
    14:00 +27°C° 0 mm 4 m/s 672 mmHg 31%
    15:00 +27°C° 0 mm 4 m/s 671 mmHg 31%
    16:00 +25°C° 0 mm 3 m/s 671 mmHg 38%
    17:00 +24°C° 0 mm 3 m/s 671 mmHg 45%
    18:00 +21°C° 0 mm 2 m/s 670 mmHg 52%
    19:00 +19°C° 0 mm 2 m/s 670 mmHg 54%
    20:00 +18°C° 0 mm 2 m/s 670 mmHg 56%
    21:00 +16°C° 0 mm 1 m/s 670 mmHg 59%
    22:00 +16°C° 0 mm 2 m/s 670 mmHg 56%
    23:00 +16°C° 0 mm 2 m/s 670 mmHg 54%

    5 Mai, Vineri

    Timp Temperatura Precipitaţii Vânt Presiune Umiditate
    00:00 +16°C° 0 mm 2 m/s 670 mmHg 52%
    01:00 +17°C° 0 mm 3 m/s 670 mmHg 51%
    02:00 +17°C° 0 mm 3 m/s 670 mmHg 50%
    03:00 +17°C° 0 mm 3 m/s 670 mmHg 48%
    04:00 +17°C° 0 mm 3 m/s 670 mmHg 48%
    05:00 +18°C° 0 mm 3 m/s 670 mmHg 48%
    06:00 +18°C° 0 mm 3 m/s 670 mmHg 48%
    07:00 +21°C° 0 mm 4 m/s 671 mmHg 40%
    08:00 +25°C° 0 mm 4 m/s 672 mmHg 33%
    09:00 +28°C° 0 mm 4 m/s 673 mmHg 26%
    10:00 +29°C° 0 mm 5 m/s 673 mmHg 23%
    11:00 +30°C° 0 mm 5 m/s 673 mmHg 21%
    12:00 +32°C° 0 mm 5 m/s 673 mmHg 19%
    13:00 +32°C° 0 mm 5 m/s 673 mmHg 19%
    14:00 +32°C° 0 mm 5 m/s 672 mmHg 19%
    15:00 +32°C° 0 mm 5 m/s 672 mmHg 19%
    16:00 +29°C° 0 mm 4 m/s 672 mmHg 23%
    17:00 +27°C° 0 mm 4 m/s 671 mmHg 27%
    18:00 +25°C° 0 mm 3 m/s 671 mmHg 31%
    19:00 +24°C° 0 mm 3 m/s 671 mmHg 34%
    20:00 +21°C° 0 mm 3 m/s 671 mmHg 36%
    21:00 +20°C° 0 mm 3 m/s 671 mmHg 39%
    22:00 +20°C° 0 mm 3 m/s 670 mmHg 39%
    23:00 +20°C° 0 mm 3 m/s 670 mmHg 39%
    Arată mai mult